This is the latest recevied weather packets stored in our database for station/object IK1QAD-3. If no packets are shown the sender has not sent any weather packets the latest 10 day(s).
| Time | Temp. | Humidity | Pressure | Rain* | Wind** | Luminosity | Snow |
|---|---|---|---|---|---|---|---|
| 1777860210 | 14.44° C | 75% | 1017.7 hPa | 0 mm | - | - | - |
| 1777859907 | 14.44° C | 75% | 1017.5 hPa | 0 mm | - | - | - |
| 1777859621 | 14.44° C | 75% | 1017.7 hPa | 0 mm | - | - | - |
| 1777859320 | 14.44° C | 76% | 1017.7 hPa | 0 mm | - | - | - |
| 1777859014 | 14.44° C | 76% | 1017.9 hPa | 0 mm | - | - | - |
| 1777858715 | 14.44° C | 75% | 1017.8 hPa | 0 mm | - | - | - |
| 1777858414 | 14.44° C | 75% | 1017.7 hPa | 0 mm | - | - | - |
| 1777858107 | 14.44° C | 75% | 1017.6 hPa | 0 mm | - | - | - |
| 1777857807 | 14.44° C | 76% | 1017.8 hPa | 0 mm | - | - | - |
| 1777857521 | 14.44° C | 76% | 1017.8 hPa | 0 mm | - | - | - |
| 1777857220 | 14.44° C | 76% | 1017.8 hPa | 0 mm | - | - | - |
| 1777856919 | 14.44° C | 76% | 1017.7 hPa | 0 mm | - | - | - |
| 1777856613 | 14.44° C | 76% | 1017.8 hPa | 0 mm | - | - | - |
| 1777856309 | 14.44° C | 75% | 1017.8 hPa | 0 mm | - | - | - |
| 1777856004 | 14.44° C | 74% | 1017.9 hPa | 0 mm | - | - | - |
| 1777855722 | 14.44° C | 74% | 1017.9 hPa | 0 mm | - | - | - |
| 1777855419 | 14.44° C | 72% | 1018 hPa | 0 mm | - | - | - |
| 1777855112 | 14.44° C | 72% | 1018 hPa | 0 mm | - | - | - |
| 1777854807 | 14.44° C | 72% | 1018 hPa | 0 mm | - | - | - |
| 1777854522 | 14.44° C | 73% | 1018.1 hPa | 0 mm | - | - | - |
| 1777854221 | 14.44° C | 73% | 1018.1 hPa | 0 mm | - | - | - |
| 1777853919 | 14.44° C | 73% | 1018.2 hPa | 0 mm | - | - | - |
| 1777853614 | 14.44° C | 69% | 1018.2 hPa | 0 mm | - | - | - |
| 1777853311 | 14.44° C | 69% | 1018.3 hPa | 0 mm | - | - | - |
| 1777853004 | 14.44° C | 72% | 1018.3 hPa | 0 mm | - | - | - |
* Rain latest hour (hover to see other rain measurements)
** Current wind speed in m/s (hover to see current wind gust speed)